﻿測定場所 (Monitoring sites),日付 (Measurement date),時間 (Measurement time),線量率 最大値 (max) μGy/h,線量率 最小値 (min) μGy/h,線量率 平均値 (average) μGy/h,
大田 (Ota),2023-06-04,23:01～24:00,0.0340,0.0297,0.0322,
大田 (Ota),2023-06-04,22:01～23:00,0.0351,0.0305,0.0325,
大田 (Ota),2023-06-04,21:01～22:00,0.0346,0.0297,0.0323,
大田 (Ota),2023-06-04,20:01～21:00,0.0341,0.0301,0.0324,
大田 (Ota),2023-06-04,19:01～20:00,0.0356,0.0311,0.0327,
大田 (Ota),2023-06-04,18:01～19:00,0.0349,0.0299,0.0324,
大田 (Ota),2023-06-04,17:01～18:00,0.0351,0.0304,0.0328,
大田 (Ota),2023-06-04,16:01～17:00,0.0343,0.0301,0.0323,
大田 (Ota),2023-06-04,15:01～16:00,0.0353,0.0301,0.0324,
大田 (Ota),2023-06-04,14:01～15:00,0.0356,0.0307,0.0325,
大田 (Ota),2023-06-04,13:01～14:00,0.0345,0.0302,0.0323,
大田 (Ota),2023-06-04,12:01～13:00,0.0344,0.0304,0.0324,
大田 (Ota),2023-06-04,11:01～12:00,0.0355,0.0303,0.0324,
大田 (Ota),2023-06-04,10:01～11:00,0.0345,0.0306,0.0323,
大田 (Ota),2023-06-04,09:01～10:00,0.0358,0.0302,0.0324,
大田 (Ota),2023-06-04,08:01～09:00,0.0350,0.0293,0.0324,
大田 (Ota),2023-06-04,07:01～08:00,0.0346,0.0294,0.0324,
大田 (Ota),2023-06-04,06:01～07:00,0.0346,0.0301,0.0324,
大田 (Ota),2023-06-04,05:01～06:00,0.0347,0.0293,0.0325,
大田 (Ota),2023-06-04,04:01～05:00,0.0351,0.0298,0.0328,
大田 (Ota),2023-06-04,03:01～04:00,0.0354,0.0297,0.0325,
大田 (Ota),2023-06-04,02:01～03:00,0.0354,0.0287,0.0325,
大田 (Ota),2023-06-04,01:01～02:00,0.0348,0.0304,0.0323,
大田 (Ota),2023-06-04,00:01～01:00,0.0348,0.0301,0.0324,
大田 (Ota),2023-06-03,23:01～24:00,0.0346,0.0301,0.0323,
大田 (Ota),2023-06-03,22:01～23:00,0.0356,0.0300,0.0325,
大田 (Ota),2023-06-03,21:01～22:00,0.0346,0.0297,0.0322,
大田 (Ota),2023-06-03,20:01～21:00,0.0349,0.0295,0.0323,
大田 (Ota),2023-06-03,19:01～20:00,0.0345,0.0291,0.0322,
大田 (Ota),2023-06-03,18:01～19:00,0.0353,0.0300,0.0323,
大田 (Ota),2023-06-03,17:01～18:00,0.0343,0.0303,0.0322,
大田 (Ota),2023-06-03,16:01～17:00,0.0352,0.0300,0.0326,
大田 (Ota),2023-06-03,15:01～16:00,0.0353,0.0303,0.0327,
大田 (Ota),2023-06-03,14:01～15:00,0.0350,0.0299,0.0325,
大田 (Ota),2023-06-03,13:01～14:00,0.0353,0.0306,0.0329,
大田 (Ota),2023-06-03,12:01～13:00,0.0361,0.0322,0.0340,
大田 (Ota),2023-06-03,11:01～12:00,0.0431,0.0339,0.0381,
大田 (Ota),2023-06-03,10:01～11:00,0.0517,0.0409,0.0467,
大田 (Ota),2023-06-03,09:01～10:00,0.0519,0.0463,0.0494,
大田 (Ota),2023-06-03,08:01～09:00,0.0499,0.0433,0.0468,
大田 (Ota),2023-06-03,07:01～08:00,0.0503,0.0445,0.0474,
大田 (Ota),2023-06-03,06:01～07:00,0.0515,0.0464,0.0493,
大田 (Ota),2023-06-03,05:01～06:00,0.0524,0.0462,0.0487,
大田 (Ota),2023-06-03,04:01～05:00,0.0497,0.0427,0.0460,
大田 (Ota),2023-06-03,03:01～04:00,0.0459,0.0407,0.0434,
大田 (Ota),2023-06-03,02:01～03:00,0.0448,0.0379,0.0413,
大田 (Ota),2023-06-03,01:01～02:00,0.0405,0.0332,0.0374,
大田 (Ota),2023-06-03,00:01～01:00,0.0390,0.0327,0.0353,
大田 (Ota),2023-06-02,23:01～24:00,0.0362,0.0322,0.0340,
大田 (Ota),2023-06-02,22:01～23:00,0.0398,0.0326,0.0361,
大田 (Ota),2023-06-02,21:01～22:00,0.0406,0.0360,0.0387,
大田 (Ota),2023-06-02,20:01～21:00,0.0405,0.0347,0.0376,
大田 (Ota),2023-06-02,19:01～20:00,0.0416,0.0363,0.0393,
大田 (Ota),2023-06-02,18:01～19:00,0.0439,0.0365,0.0399,
大田 (Ota),2023-06-02,17:01～18:00,0.0402,0.0324,0.0368,
大田 (Ota),2023-06-02,16:01～17:00,0.0354,0.0303,0.0328,
大田 (Ota),2023-06-02,15:01～16:00,0.0370,0.0317,0.0335,
大田 (Ota),2023-06-02,14:01～15:00,0.0370,0.0321,0.0340,
大田 (Ota),2023-06-02,13:01～14:00,0.0365,0.0313,0.0340,
大田 (Ota),2023-06-02,12:01～13:00,0.0356,0.0304,0.0337,
大田 (Ota),2023-06-02,11:01～12:00,0.0366,0.0311,0.0341,
大田 (Ota),2023-06-02,10:01～11:00,0.0374,0.0322,0.0344,
大田 (Ota),2023-06-02,09:01～10:00,0.0376,0.0318,0.0343,
大田 (Ota),2023-06-02,08:01～09:00,0.0368,0.0327,0.0351,
大田 (Ota),2023-06-02,07:01～08:00,0.0399,0.0337,0.0365,
大田 (Ota),2023-06-02,06:01～07:00,0.0415,0.0353,0.0385,
大田 (Ota),2023-06-02,05:01～06:00,0.0438,0.0385,0.0408,
大田 (Ota),2023-06-02,04:01～05:00,0.0462,0.0405,0.0431,
大田 (Ota),2023-06-02,03:01～04:00,0.0462,0.0377,0.0425,
大田 (Ota),2023-06-02,02:01～03:00,0.0433,0.0346,0.0391,
大田 (Ota),2023-06-02,01:01～02:00,0.0386,0.0337,0.0359,
大田 (Ota),2023-06-02,00:01～01:00,0.0387,0.0328,0.0358,
大田 (Ota),2023-06-01,23:01～24:00,0.0362,0.0302,0.0330,
大田 (Ota),2023-06-01,22:01～23:00,0.0350,0.0301,0.0324,
大田 (Ota),2023-06-01,21:01～22:00,0.0351,0.0301,0.0325,
大田 (Ota),2023-06-01,20:01～21:00,0.0344,0.0307,0.0325,
大田 (Ota),2023-06-01,19:01～20:00,0.0344,0.0299,0.0324,
大田 (Ota),2023-06-01,18:01～19:00,0.0340,0.0298,0.0321,
大田 (Ota),2023-06-01,17:01～18:00,0.0346,0.0302,0.0321,
大田 (Ota),2023-06-01,16:01～17:00,0.0352,0.0303,0.0326,
大田 (Ota),2023-06-01,15:01～16:00,0.0329,0.0290,0.0310,
大田 (Ota),2023-06-01,14:01～15:00,0.0339,0.0278,0.0310,
大田 (Ota),2023-06-01,13:01～14:00,0.0343,0.0301,0.0324,
大田 (Ota),2023-06-01,12:01～13:00,0.0349,0.0291,0.0321,
大田 (Ota),2023-06-01,11:01～12:00,0.0350,0.0302,0.0322,
大田 (Ota),2023-06-01,10:01～11:00,0.0343,0.0300,0.0323,
大田 (Ota),2023-06-01,09:01～10:00,0.0348,0.0301,0.0320,
大田 (Ota),2023-06-01,08:01～09:00,0.0352,0.0291,0.0324,
大田 (Ota),2023-06-01,07:01～08:00,0.0360,0.0304,0.0325,
大田 (Ota),2023-06-01,06:01～07:00,0.0346,0.0300,0.0324,
大田 (Ota),2023-06-01,05:01～06:00,0.0337,0.0300,0.0321,
大田 (Ota),2023-06-01,04:01～05:00,0.0339,0.0290,0.0317,
大田 (Ota),2023-06-01,03:01～04:00,0.0342,0.0304,0.0321,
大田 (Ota),2023-06-01,02:01～03:00,0.0343,0.0299,0.0322,
大田 (Ota),2023-06-01,01:01～02:00,0.0338,0.0292,0.0321,
大田 (Ota),2023-06-01,00:01～01:00,0.0340,0.0300,0.0321,
大田 (Ota),2023-05-31,23:01～24:00,0.0351,0.0298,0.0321,
大田 (Ota),2023-05-31,22:01～23:00,0.0346,0.0297,0.0321,
大田 (Ota),2023-05-31,21:01～22:00,0.0349,0.0305,0.0326,
大田 (Ota),2023-05-31,20:01～21:00,0.0346,0.0286,0.0322,
大田 (Ota),2023-05-31,19:01～20:00,0.0343,0.0301,0.0324,
大田 (Ota),2023-05-31,18:01～19:00,0.0346,0.0301,0.0324,
大田 (Ota),2023-05-31,17:01～18:00,0.0344,0.0312,0.0325,
大田 (Ota),2023-05-31,16:01～17:00,0.0340,0.0297,0.0324,
大田 (Ota),2023-05-31,15:01～16:00,0.0349,0.0301,0.0324,
大田 (Ota),2023-05-31,14:01～15:00,0.0352,0.0287,0.0324,
大田 (Ota),2023-05-31,13:01～14:00,0.0352,0.0302,0.0320,
大田 (Ota),2023-05-31,12:01～13:00,0.0349,0.0290,0.0324,
大田 (Ota),2023-05-31,11:01～12:00,0.0345,0.0295,0.0323,
大田 (Ota),2023-05-31,10:01～11:00,0.0342,0.0301,0.0323,
大田 (Ota),2023-05-31,09:01～10:00,0.0351,0.0299,0.0321,
大田 (Ota),2023-05-31,08:01～09:00,0.0350,0.0303,0.0324,
大田 (Ota),2023-05-31,07:01～08:00,0.0362,0.0315,0.0336,
大田 (Ota),2023-05-31,06:01～07:00,0.0426,0.0332,0.0373,
大田 (Ota),2023-05-31,05:01～06:00,0.0439,0.0356,0.0401,
大田 (Ota),2023-05-31,04:01～05:00,0.0379,0.0314,0.0348,
大田 (Ota),2023-05-31,03:01～04:00,0.0367,0.0305,0.0328,
大田 (Ota),2023-05-31,02:01～03:00,0.0344,0.0308,0.0327,
大田 (Ota),2023-05-31,01:01～02:00,0.0350,0.0305,0.0327,
大田 (Ota),2023-05-31,00:01～01:00,0.0349,0.0300,0.0326,
大田 (Ota),2023-05-30,23:01～24:00,0.0353,0.0304,0.0326,
大田 (Ota),2023-05-30,22:01～23:00,0.0353,0.0301,0.0325,
大田 (Ota),2023-05-30,21:01～22:00,0.0354,0.0306,0.0328,
大田 (Ota),2023-05-30,20:01～21:00,0.0344,0.0302,0.0326,
大田 (Ota),2023-05-30,19:01～20:00,0.0344,0.0306,0.0325,
大田 (Ota),2023-05-30,18:01～19:00,0.0349,0.0301,0.0325,
大田 (Ota),2023-05-30,17:01～18:00,0.0350,0.0297,0.0323,
大田 (Ota),2023-05-30,16:01～17:00,0.0350,0.0297,0.0325,
大田 (Ota),2023-05-30,15:01～16:00,0.0346,0.0301,0.0323,
大田 (Ota),2023-05-30,14:01～15:00,0.0355,0.0300,0.0327,
大田 (Ota),2023-05-30,13:01～14:00,0.0347,0.0302,0.0326,
大田 (Ota),2023-05-30,12:01～13:00,0.0348,0.0304,0.0327,
大田 (Ota),2023-05-30,11:01～12:00,0.0361,0.0296,0.0328,
大田 (Ota),2023-05-30,10:01～11:00,0.0357,0.0308,0.0330,
大田 (Ota),2023-05-30,09:01～10:00,0.0369,0.0304,0.0333,
大田 (Ota),2023-05-30,08:01～09:00,0.0363,0.0313,0.0336,
大田 (Ota),2023-05-30,07:01～08:00,0.0360,0.0307,0.0333,
大田 (Ota),2023-05-30,06:01～07:00,0.0364,0.0315,0.0337,
大田 (Ota),2023-05-30,05:01～06:00,0.0356,0.0309,0.0335,
大田 (Ota),2023-05-30,04:01～05:00,0.0370,0.0303,0.0343,
大田 (Ota),2023-05-30,03:01～04:00,0.0356,0.0306,0.0332,
大田 (Ota),2023-05-30,02:01～03:00,0.0353,0.0315,0.0332,
大田 (Ota),2023-05-30,01:01～02:00,0.0388,0.0329,0.0350,
大田 (Ota),2023-05-30,00:01～01:00,0.0400,0.0327,0.0367,
大田 (Ota),2023-05-29,23:01～24:00,0.0485,0.0385,0.0429,
大田 (Ota),2023-05-29,22:01～23:00,0.0536,0.0428,0.0483,
大田 (Ota),2023-05-29,21:01～22:00,0.0534,0.0475,0.0501,
大田 (Ota),2023-05-29,20:01～21:00,0.0544,0.0410,0.0469,
大田 (Ota),2023-05-29,19:01～20:00,0.0434,0.0379,0.0410,
大田 (Ota),2023-05-29,18:01～19:00,0.0439,0.0382,0.0404,
大田 (Ota),2023-05-29,17:01～18:00,0.0423,0.0365,0.0397,
大田 (Ota),2023-05-29,16:01～17:00,0.0438,0.0377,0.0401,
大田 (Ota),2023-05-29,15:01～16:00,0.0426,0.0378,0.0407,
大田 (Ota),2023-05-29,14:01～15:00,0.0444,0.0370,0.0411,
大田 (Ota),2023-05-29,13:01～14:00,0.0383,0.0328,0.0354,
大田 (Ota),2023-05-29,12:01～13:00,0.0374,0.0322,0.0348,
大田 (Ota),2023-05-29,11:01～12:00,0.0400,0.0335,0.0361,
大田 (Ota),2023-05-29,10:01～11:00,0.0440,0.0368,0.0404,
大田 (Ota),2023-05-29,09:01～10:00,0.0446,0.0387,0.0422,
大田 (Ota),2023-05-29,08:01～09:00,0.0469,0.0384,0.0429,
大田 (Ota),2023-05-29,07:01～08:00,0.0421,0.0363,0.0398,
大田 (Ota),2023-05-29,06:01～07:00,0.0433,0.0362,0.0408,
大田 (Ota),2023-05-29,05:01～06:00,0.0423,0.0377,0.0400,
大田 (Ota),2023-05-29,04:01～05:00,0.0449,0.0395,0.0420,
大田 (Ota),2023-05-29,03:01～04:00,0.0443,0.0356,0.0399,
大田 (Ota),2023-05-29,02:01～03:00,0.0397,0.0322,0.0352,
大田 (Ota),2023-05-29,01:01～02:00,0.0352,0.0305,0.0335,
大田 (Ota),2023-05-29,00:01～01:00,0.0370,0.0309,0.0340,
